Weather History for Colby, KS

Change the Weather History Date:

Friday, May 16, 2014

  Actual Average (KGLD) Record (KGLD)
Temperature  
Mean Temperature 52 °F 59 °F  
Max Temperature 68 °F 73 °F 94 °F (1996)
Min Temperature 37 °F 46 °F 27 °F (1945)
Degree Days  
Heating Degree Days 12 7  
Month to date heating degree days 141  
Since 1 July heating degree days 5796  
Cooling Degree Days 0 1  
Month to date cooling degree days 14  
Year to date cooling degree days 18  
Growing Degree Days 2 (Base 50)    
Moisture  
Dew Point 41 °F    
Average Humidity 63    
Maximum Humidity 100    
Minimum Humidity 39    
Precipitation  
Precipitation 0.00 in 0.10 in 1.64 in (1947)
Month to date precipitation 1.33  
Year to date precipitation 4.86  
Snow  
Snow 0.00 in 0.00 in - ()
Month to date snowfall 0.5  
Since 1 July snowfall 35.5  
Snow Depth -    
Sea Level Pressure  
Sea Level Pressure 30.06 in    
Wind  
Wind Speed 7 mph (NNW)    
Max Wind Speed 22 mph    
Max Gust Speed 29 mph    
Visibility 10 miles    
Events Rain    
T = Trace of Precipitation, MM = Missing Value Source: NWS Daily Summary

Daily Weather History Graph

Daily Weather History Graph

Search for Another Location

Airport:

Trip Planner

Search our weather history database for the weather conditions in past years. The results will help you decide how hot, cold, wet, or windy it might be!

Date:

Astronomy

May. 16, 2014 Rise Set
Actual Time 6:29 AM CDT 8:52 PM CDT
Civil Twilight 5:59 AM CDT 9:22 PM CDT
Nautical Twilight 5:21 AM CDT 10:00 PM CDT
Astronomical Twilight 4:40 AM CDT 10:42 PM CDT
Moon 11:00 PM CDT (5/16) 8:13 AM CDT (5/16)
Length of Visible Light 15h 23m
Length of Day
14h 22m
Waning Gibbous, 95% of the Moon is Illuminated
May 16
Waning Gibbous
May 21
Last Quarter
May 28
New
Jun 5
First Quarter
Jun 12
Full

Hourly Weather History & Observations

Time (CDT) Temp. Windchill Dew Point Humidity Pressure Visibility Wind Dir Wind Speed Gust Speed Precip Events Conditions
12:10 AM 42.8 °F 39.3 °F 33.8 °F 70% 30.17 in 10.0 mi SW 5.8 mph - N/A   Clear
12:30 AM 42.8 °F 39.3 °F 32.0 °F 66% 30.17 in 10.0 mi SW 5.8 mph - N/A   Clear
12:50 AM 41.0 °F 39.0 °F 32.0 °F 70% 30.15 in 10.0 mi SSW 3.5 mph - N/A   Clear
1:10 AM 42.8 °F 41.1 °F 32.0 °F 66% 30.15 in 10.0 mi SW 3.5 mph - N/A   Mostly Cloudy
1:50 AM 41.0 °F - 32.0 °F 70% 30.14 in 10.0 mi Calm Calm - N/A   Mostly Cloudy
2:10 AM 39.2 °F - 32.0 °F 75% 30.14 in 10.0 mi Calm Calm - N/A   Scattered Clouds
2:30 AM 37.4 °F - 32.0 °F 81% 30.13 in 10.0 mi Calm Calm - N/A   Mostly Cloudy
2:50 AM 39.2 °F 37.0 °F 33.8 °F 81% 30.12 in 10.0 mi SSW 3.5 mph - N/A   Overcast
3:10 AM 41.0 °F 38.0 °F 33.8 °F 76% 30.12 in 10.0 mi SSW 4.6 mph - N/A   Overcast
3:30 AM 41.0 °F 39.0 °F 33.8 °F 76% 30.11 in 10.0 mi South 3.5 mph - N/A   Overcast
3:50 AM 42.8 °F - 33.8 °F 70% 30.10 in 10.0 mi Calm Calm - N/A   Overcast
4:10 AM 42.8 °F - 33.8 °F 70% 30.09 in 10.0 mi Calm Calm - N/A   Overcast
4:30 AM 42.8 °F 40.1 °F 35.6 °F 76% 30.09 in 10.0 mi SW 4.6 mph - N/A   Overcast
4:50 AM 44.6 °F 43.1 °F 35.6 °F 71% 30.10 in 10.0 mi WNW 3.5 mph - N/A   Overcast
5:10 AM 44.6 °F 41.4 °F 35.6 °F 71% 30.13 in 10.0 mi NW 5.8 mph - N/A Rain Light Rain
5:30 AM 42.8 °F 38.6 °F 35.6 °F 76% 30.13 in 10.0 mi NW 6.9 mph - N/A Rain Light Rain
5:50 AM 42.8 °F 41.1 °F 39.2 °F 87% 30.10 in 10.0 mi ESE 3.5 mph - N/A Rain Light Rain
6:10 AM 41.0 °F 37.1 °F 39.2 °F 93% 30.07 in 10.0 mi ESE 5.8 mph - N/A   Overcast
6:30 AM 41.0 °F 37.1 °F 39.2 °F 93% 30.07 in 10.0 mi East 5.8 mph - N/A   Scattered Clouds
6:50 AM 41.0 °F 38.0 °F 39.2 °F 93% 30.06 in 10.0 mi ESE 4.6 mph - N/A   Scattered Clouds
7:10 AM 41.0 °F 37.1 °F 41.0 °F 100% 30.06 in 10.0 mi SSE 5.8 mph - N/A   Clear
7:30 AM 42.8 °F 39.3 °F 41.0 °F 93% 30.05 in 10.0 mi SSE 5.8 mph - N/A   Clear
7:50 AM 44.6 °F 40.7 °F 39.2 °F 81% 30.05 in 10.0 mi SSE 6.9 mph - N/A   Clear
8:10 AM 46.4 °F 42.4 °F 41.0 °F 81% 30.04 in 10.0 mi SE 8.1 mph - N/A   Clear
8:30 AM 48.2 °F - 41.0 °F 76% 30.04 in 10.0 mi SE 5.8 mph - N/A   Clear
8:50 AM 51.8 °F - 41.0 °F 67% 30.03 in 10.0 mi SE 9.2 mph - N/A   Clear
9:10 AM 51.8 °F - 41.0 °F 67% 30.02 in 10.0 mi SE 12.7 mph - N/A   Scattered Clouds
9:30 AM 53.6 °F - 41.0 °F 62% 30.01 in 10.0 mi SSE 15.0 mph - N/A   Scattered Clouds
9:50 AM 55.4 °F - 42.8 °F 63% 30.02 in 10.0 mi SSE 10.4 mph - N/A   Clear
10:10 AM 55.4 °F - 41.0 °F 58% 30.02 in 10.0 mi SSE 9.2 mph - N/A   Mostly Cloudy
10:30 AM 59.0 °F - 41.0 °F 51% 30.03 in 10.0 mi SSW 6.9 mph - N/A   Overcast
10:50 AM 59.0 °F - 41.0 °F 51% 30.03 in 10.0 mi SSW 5.8 mph - N/A   Scattered Clouds
11:10 AM 60.8 °F - 39.2 °F 45% 30.04 in 10.0 mi WSW 4.6 mph - N/A   Mostly Cloudy
11:30 AM 60.8 °F - 37.4 °F 42% 30.00 in 10.0 mi South 8.1 mph - N/A   Overcast
11:50 AM 62.6 °F - 37.4 °F 39% 30.00 in 10.0 mi NW 5.8 mph - N/A   Scattered Clouds
12:10 PM 64.4 °F - 39.2 °F 40% 29.99 in 10.0 mi WNW 16.1 mph 19.6 mph N/A   Scattered Clouds
12:30 PM 64.4 °F - 41.0 °F 42% 30.00 in 10.0 mi NW 12.7 mph 16.1 mph N/A   Mostly Cloudy
12:50 PM 64.4 °F - 41.0 °F 42% 30.00 in 10.0 mi NNW 13.8 mph - N/A   Scattered Clouds
1:10 PM 66.2 °F - 42.8 °F 43% 30.00 in 10.0 mi NW 12.7 mph 24.2 mph N/A   Scattered Clouds
1:30 PM 66.2 °F - 42.8 °F 43% 30.00 in 10.0 mi NW 12.7 mph 23.0 mph N/A   Scattered Clouds
1:50 PM 66.2 °F - 46.4 °F 49% 30.02 in 10.0 mi NW 21.9 mph 28.8 mph N/A Rain Light Rain
2:10 PM 62.6 °F - 46.4 °F 55% 30.03 in 10.0 mi NNW 18.4 mph 26.5 mph N/A Rain Light Rain
2:30 PM 60.8 °F - 46.4 °F 59% 30.03 in 10.0 mi NNW 18.4 mph 24.2 mph N/A Rain Light Rain
2:50 PM 62.6 °F - 44.6 °F 52% 30.02 in 10.0 mi NNW 18.4 mph 24.2 mph N/A   Mostly Cloudy
3:10 PM 64.4 °F - 44.6 °F 49% 30.02 in 10.0 mi NNW 16.1 mph 21.9 mph N/A   Mostly Cloudy
3:30 PM 64.4 °F - 44.6 °F 49% 30.02 in 10.0 mi NNW 20.7 mph 26.5 mph N/A   Mostly Cloudy
3:50 PM 66.2 °F - 44.6 °F 46% 30.02 in 10.0 mi NW 20.7 mph 26.5 mph N/A   Scattered Clouds
4:10 PM 66.2 °F - 46.4 °F 49% 30.01 in 10.0 mi NW 19.6 mph 27.6 mph N/A   Mostly Cloudy
4:30 PM 68.0 °F - 46.4 °F 46% 30.00 in 10.0 mi NW 18.4 mph 25.3 mph N/A   Scattered Clouds
4:50 PM 68.0 °F - 42.8 °F 40% 30.01 in 10.0 mi NNW 21.9 mph 26.5 mph N/A   Clear
5:10 PM 68.0 °F - 42.8 °F 40% 30.01 in 10.0 mi NW 20.7 mph 28.8 mph N/A   Scattered Clouds
5:30 PM 60.8 °F - 46.4 °F 59% 30.02 in 10.0 mi NE 18.4 mph - N/A   Overcast
5:50 PM 62.6 °F - 46.4 °F 55% 30.02 in 10.0 mi NE 11.5 mph 16.1 mph N/A   Mostly Cloudy
6:10 PM 62.6 °F - 46.4 °F 55% 30.03 in 10.0 mi NE 9.2 mph - N/A   Mostly Cloudy
6:30 PM 60.8 °F - 46.4 °F 59% 30.04 in 10.0 mi ENE 10.4 mph - N/A   Mostly Cloudy
6:50 PM 60.8 °F - 46.4 °F 59% 30.04 in 10.0 mi NE 4.6 mph - N/A   Mostly Cloudy
7:10 PM 62.6 °F - 44.6 °F 52% 30.04 in 10.0 mi NNE 11.5 mph - N/A   Scattered Clouds
7:30 PM 62.6 °F - 44.6 °F 52% 30.04 in 10.0 mi North 9.2 mph - N/A   Scattered Clouds
7:50 PM 62.6 °F - 44.6 °F 52% 30.04 in 10.0 mi North 8.1 mph - N/A   Mostly Cloudy
8:10 PM 60.8 °F - 42.8 °F 52% 30.06 in 10.0 mi North 12.7 mph 20.7 mph N/A   Mostly Cloudy
8:30 PM 59.0 °F - 42.8 °F 55% 30.06 in 10.0 mi North 10.4 mph - N/A   Scattered Clouds
8:50 PM 55.4 °F - 42.8 °F 63% 30.07 in 10.0 mi North 5.8 mph - N/A   Scattered Clouds
9:10 PM 55.4 °F - 42.8 °F 63% 30.08 in 10.0 mi North 6.9 mph - N/A   Mostly Cloudy
9:30 PM 55.4 °F - 42.8 °F 63% 30.08 in 10.0 mi North 6.9 mph - N/A   Overcast
9:50 PM 51.8 °F - 42.8 °F 71% 30.09 in 10.0 mi North 9.2 mph - N/A   Scattered Clouds
10:10 PM 51.8 °F - 42.8 °F 71% 30.10 in 10.0 mi North 9.2 mph - N/A   Scattered Clouds
10:30 PM 51.8 °F - 42.8 °F 71% 30.12 in 10.0 mi North 8.1 mph - N/A   Clear
11:10 PM 50.0 °F - 42.8 °F 76% 30.12 in 10.0 mi North 6.9 mph - N/A   Clear
11:30 PM 50.0 °F - 42.8 °F 76% 30.12 in 10.0 mi NNE 9.2 mph - N/A   Clear
11:50 PM 46.4 °F 41.1 °F 42.8 °F 87% 30.13 in 10.0 mi East 11.5 mph - N/A   Clear